This is the latest recevied weather packets stored in our database for station/object EA3ABN-1. If no packets are shown the sender has not sent any weather packets the latest 10 day(s).
| Time | Temp. | Humidity | Pressure | Rain* | Wind** | Luminosity | Snow |
|---|---|---|---|---|---|---|---|
| 1778059498 | 25.56° C | 37% | 1009.6 hPa | - | - | - | - |
| 1778058904 | 25° C | 37% | 1009.5 hPa | - | - | - | - |
| 1778058298 | 24.44° C | 37% | 1009.6 hPa | - | - | - | - |
| 1778053213 | 20.56° C | 38% | 1009.6 hPa | - | - | - | - |
| 1778052598 | 20.56° C | 38% | 1009.6 hPa | - | - | - | - |
| 1778052314 | 20.56° C | 38% | 1009.6 hPa | - | - | - | - |
| 1778051698 | 20° C | 38% | 1009.6 hPa | - | - | - | - |
| 1778051098 | 18.89° C | 39% | 1009.6 hPa | - | - | - | - |
| 1778050798 | 18.89° C | 39% | 1009.8 hPa | - | - | - | - |
| 1778049898 | 17.78° C | 39% | 1009.9 hPa | - | - | - | - |
| 1778049614 | 17.22° C | 39% | 1009.8 hPa | - | - | - | - |
| 1778046298 | 15.56° C | 35% | 1010.1 hPa | - | - | - | - |
| 1778045398 | 15.56° C | 35% | 1010 hPa | - | - | - | - |
| 1778044498 | 15.56° C | 35% | 1009.8 hPa | - | - | - | - |
| 1778042398 | 16.11° C | 34% | 1009.5 hPa | - | - | - | - |
| 1778042097 | 16.11° C | 35% | 1009.6 hPa | - | - | - | - |
| 1778040298 | 16.11° C | 35% | 1009.4 hPa | - | - | - | - |
| 1778040044 | 16.11° C | 35% | 1009.3 hPa | - | - | - | - |
| 1778039397 | 16.11° C | 35% | 1009.3 hPa | - | - | - | - |
| 1778039097 | 16.11° C | 35% | 1009.1 hPa | - | - | - | - |
| 1778038514 | 16.11° C | 34% | 1009.2 hPa | - | - | - | - |
| 1778038198 | 16.11° C | 35% | 1009.2 hPa | - | - | - | - |
| 1778036113 | 16.67° C | 35% | 1009.1 hPa | - | - | - | - |
| 1778035797 | 16.67° C | 35% | 1009.1 hPa | - | - | - | - |
| 1778035198 | 16.67° C | 35% | 1009 hPa | - | - | - | - |
* Rain since midnight (hover to see other rain measurements)
** Current wind speed in m/s (hover to see current wind gust speed)